Location: Debolt
(55.2626°N, 118.0981°W)
Time: 01:50:13
(UTC+00:00)

MOZHAYETS 4 - Pass Details

Date: 15 December 2023
Orbit: 654 x 672 km, 98.3° (Epoch: 26 February)

Event Time Altitude Azimuth Distance (km) Brightness Sun altitude
Rises 00:18:36 0° 14° (NNE) 3,042 10.7 -7.3°
Reaches altitude 10° 00:20:51 10° 14° (NNE) 2,123 9.9 -7.6°
Maximum altitude 00:25:30 79° 289° (WNW) 695 7.9 -8.1°
Drops below altitude 10° 00:30:06 10° 203° (SSW) 2,104 11.1 -8.7°
Sets 00:32:19 0° 202° (SSW) 3,011 12.0 -9.0°
